WetterOnline ( https://www.wetteronline.de )

Wetter aktuell Neerpelt

Aktuelles Wetter: Kleine-Brogel (64m)

6-stündlich | Neueste Meldungen
Ortszeit Temperatur Wetter
Mi, 17.07. 14:00 21.8° C wolkig
Mi, 17.07. 8:00 16.9° C wolkig
Mi, 17.07. 2:00 16.7° C bedeckt
Di, 16.07. 20:00 19.7° C bedeckt
Di, 16.07. 14:00 20.4° C wolkig
Di, 16.07. 8:00 17.6° C fast wolkenlos
Di, 16.07. 2:00 18.7° C leicht bewölkt
Mo, 15.07. 20:00 23.0° C leichter Regen
Ortszeit Temperatur Wetter
Mi, 17.07. 18:00 23.1° C bewölkt
Mi, 17.07. 17:00 23.4° C bewölkt
Mi, 17.07. 16:00 24.7° C leicht bewölkt
Mi, 17.07. 15:00 24.3° C wolkig
Mi, 17.07. 14:00 21.8° C wolkig
Mi, 17.07. 13:00 22.2° C wolkig
Mi, 17.07. 12:00 20.8° C wolkig
Ortszeit Relative Feuchte Sichtweite
Mi, 17.07. 14:00 61% 20 km
Mi, 17.07. 8:00 86% 20 km
Mi, 17.07. 2:00 82% >70 km
Di, 16.07. 20:00 67% >70 km
Di, 16.07. 14:00 61% 20 km
Di, 16.07. 8:00 78% 20 km
Di, 16.07. 2:00 85% >70 km
Mo, 15.07. 20:00 60% >70 km
Ortszeit Relative Feuchte Sichtweite
Mi, 17.07. 18:00 59% >70 km
Mi, 17.07. 17:00 56% >70 km
Mi, 17.07. 16:00 53% 20 km
Mi, 17.07. 15:00 53% 20 km
Mi, 17.07. 14:00 61% 20 km
Mi, 17.07. 13:00 62% 20 km
Mi, 17.07. 12:00 66% 20 km
Ortszeit Niederschlagsmenge Niederschlagsart
Mi, 17.07. 14:00 0.0 l/m2 in 6 Std. -
Mi, 17.07. 8:00 0.0 l/m2 in 12 Std. -
Mi, 17.07. 2:00 0.0 l/m2 in 6 Std. -
Di, 16.07. 20:00 0.8 l/m2 in 12 Std. Regen
Di, 16.07. 14:00 0.1 l/m2 in 6 Std. Regenschauer
Di, 16.07. 8:00 0.2 l/m2 in 12 Std. -
Di, 16.07. 2:00 0.2 l/m2 in 6 Std. Regen
Mo, 15.07. 20:00 0.0 l/m2 in 12 Std. Regen
Ortszeit Niederschlagsmenge Niederschlagsart
Mi, 17.07. 18:00 keine Meldung -
Mi, 17.07. 17:00 keine Meldung -
Mi, 17.07. 16:00 keine Meldung -
Mi, 17.07. 15:00 keine Meldung -
Mi, 17.07. 14:00 keine Meldung -
Mi, 17.07. 13:00 keine Meldung -
Mi, 17.07. 12:00 keine Meldung -
Ortszeit Stärke Spitze Richtung
km/h Bft. km/h Grad Sektor
Mi, 17.07. 14:00 11 2 25 260° W
Mi, 17.07. 8:00 14 3 25 230° SW
Mi, 17.07. 2:00 14 3 47 230° SW
Di, 16.07. 20:00 29 5 54 230° SW
Di, 16.07. 14:00 29 5 47 220° SW
Di, 16.07. 8:00 22 4 43 220° SW
Di, 16.07. 2:00 11 2 40 200° S
Mo, 15.07. 20:00 4 1 22 uml. uml.
Ortszeit Stärke Spitze Richtung
km/h Bft. km/h Grad Sektor
Mi, 17.07. 18:00 7 2 14 300° NW
Mi, 17.07. 17:00 11 2 32 260° W
Mi, 17.07. 16:00 11 2 29 240° SW
Mi, 17.07. 15:00 14 3 32 230° SW
Mi, 17.07. 14:00 11 2 25 260° W
Mi, 17.07. 13:00 11 2 25 260° W
Mi, 17.07. 12:00 14 3 25 240° SW
Ortszeit Untergrenze Bedeckung Gattung
total tief tief mittel hoch
Mi, 17.07. 14:00 900 m 5/8 4/8 Sc Ac -
Mi, 17.07. 8:00 900 m 7/8 2/8 Sc Ac Ci
Mi, 17.07. 2:00 510 m - 8/8 - - -
Di, 16.07. 20:00 1020 m - 8/8 - - -
Di, 16.07. 14:00 960 m 6/8 5/8 Cu Ac -
Di, 16.07. 8:00 480 m 1/8 1/8 Sc - -
Di, 16.07. 2:00 3300 m - 4/8 - - -
Mo, 15.07. 20:00 1800 m - 5/8 - - -
Ortszeit Bedeckungsgrad in Achtel und Wolkenuntergrenze
Mi, 17.07. 18:00 7(1290m)
Mi, 17.07. 17:00 3(1200m) 7(1800m)
Mi, 17.07. 16:00 2(1050m)
Mi, 17.07. 15:00 3(1050m) 4(1500m)
Mi, 17.07. 14:00 2(900m) 4(1500m)
Mi, 17.07. 13:00 2(900m) 4(1500m)
Mi, 17.07. 12:00 4(750m) 5(900m)
Ortszeit Luftdruck NN (hPa) Tendenz (hPa in 3 Std.)
Mi, 17.07. 14:00 1021 + 0,6
Mi, 17.07. 8:00 1019 + 1,8
Mi, 17.07. 2:00 1016 + 1,0
Di, 16.07. 20:00 1013 + 0,5
Di, 16.07. 14:00 1011 + 0,7
Di, 16.07. 8:00 1010 + 2,0
Di, 16.07. 2:00 1007 + 0,6
Mo, 15.07. 20:00 1008 - 1,4
Ortszeit Luftdruck NN (hPa) Tendenz (hPa in 3 Std.)
Mi, 17.07. 18:00 1021 + 0,3
Mi, 17.07. 17:00 1021 + 0,1
Mi, 17.07. 16:00 1021 - 0,2
Mi, 17.07. 15:00 1021 + 0,1
Mi, 17.07. 14:00 1021 + 0,6
Mi, 17.07. 13:00 1021 + 0,9
Mi, 17.07. 12:00 1021 + 0,9
Ortszeit Schneehöhe (cm)
Mi, 17.07. 14:00 -
Mi, 17.07. 8:00 -
Mi, 17.07. 2:00 -
Di, 16.07. 20:00 -
Di, 16.07. 14:00 -
Di, 16.07. 8:00 -
Di, 16.07. 2:00 -
Mo, 15.07. 20:00 -
Ortszeit Schneehöhe (cm)
Mi, 17.07. 18:00 -
Mi, 17.07. 17:00 -
Mi, 17.07. 16:00 -
Mi, 17.07. 15:00 -
Mi, 17.07. 14:00 -
Mi, 17.07. 13:00 -
Mi, 17.07. 12:00 -
Link zu dieser Seite / Seite empfehlen

Das Wetter in ...